TimeCDT,TemperatureF,Dew PointF,Humidity,Sea Level PressureIn,VisibilityMPH,Wind Direction,Wind SpeedMPH,Gust SpeedMPH,PrecipitationIn,Events,Conditions,WindDirDegrees,DateUTC
12:53 AM,55.9,36.0,47,30.04,10.0,Variable,3.5,-,N/A,,Clear,0,2011-10-16 05:53:00
1:53 AM,55.0,36.0,49,30.04,10.0,South,3.5,-,N/A,,Clear,180,2011-10-16 06:53:00
2:53 AM,55.0,36.0,49,30.02,10.0,South,8.1,-,N/A,,Clear,170,2011-10-16 07:53:00
3:53 AM,55.0,37.0,51,30.02,10.0,Calm,Calm,-,N/A,,Clear,0,2011-10-16 08:53:00
4:53 AM,50.0,39.0,66,30.01,10.0,Calm,Calm,-,N/A,,Clear,0,2011-10-16 09:53:00
5:53 AM,57.9,39.0,49,30.00,10.0,SSW,6.9,-,N/A,,Clear,210,2011-10-16 10:53:00
6:53 AM,57.9,39.0,49,29.99,10.0,SSW,8.1,-,N/A,,Clear,200,2011-10-16 11:53:00
7:53 AM,59.0,42.1,53,29.99,10.0,SW,10.4,16.1,N/A,,Clear,220,2011-10-16 12:53:00
8:53 AM,64.0,45.0,50,30.01,10.0,SW,9.2,18.4,N/A,,Clear,230,2011-10-16 13:53:00
9:53 AM,69.1,48.0,47,30.00,10.0,SW,13.8,23.0,N/A,,Clear,230,2011-10-16 14:53:00
10:53 AM,75.0,51.1,43,29.99,10.0,SW,20.7,27.6,N/A,,Clear,230,2011-10-16 15:53:00
11:53 AM,78.1,51.1,39,29.97,10.0,SW,13.8,23.0,N/A,,Clear,220,2011-10-16 16:53:00
12:53 PM,80.1,50.0,35,29.93,10.0,WSW,21.9,27.6,N/A,,Clear,240,2011-10-16 17:53:00
1:53 PM,82.0,51.1,34,29.88,10.0,SW,20.7,28.8,N/A,,Clear,220,2011-10-16 18:53:00
2:53 PM,82.9,50.0,32,29.85,10.0,SW,21.9,34.5,N/A,,Clear,230,2011-10-16 19:53:00
3:53 PM,84.0,48.9,29,29.85,10.0,SW,19.6,32.2,N/A,,Clear,230,2011-10-16 20:53:00
4:53 PM,82.9,50.0,32,29.85,10.0,SW,10.4,23.0,N/A,,Clear,220,2011-10-16 21:53:00
5:53 PM,80.1,50.0,35,29.84,10.0,SW,10.4,-,N/A,,Clear,230,2011-10-16 22:53:00
6:53 PM,77.0,50.0,39,29.84,10.0,SW,8.1,-,N/A,,Clear,220,2011-10-16 23:53:00
7:53 PM,73.9,51.1,45,29.85,10.0,SW,6.9,-,N/A,,Clear,220,2011-10-17 00:53:00
8:53 PM,73.0,52.0,48,29.86,10.0,SSW,8.1,-,N/A,,Clear,210,2011-10-17 01:53:00
9:53 PM,71.1,51.1,49,29.90,10.0,WNW,4.6,-,N/A,,Clear,290,2011-10-17 02:53:00
10:53 PM,64.9,46.9,52,29.93,10.0,NNE,16.1,-,N/A,,Clear,20,2011-10-17 03:53:00
11:53 PM,61.0,46.0,58,29.95,10.0,NNE,8.1,-,N/A,,Clear,20,2011-10-17 04:53:00